User: anonymous   Login
Location: G�ndlingen
(48.0142°N, 7.6396°E)
Time: 13:24:56
(UTC+00:00)
Language:

Cosmos 1606 - Orbit

View from above orbital plane
View from above orbital plane
View from above satellite
View from above satellite

Ground track
Ground track

The orbit data is extracted from the following two-line orbital elements,

1 15369U 84111A   20262.47867553 +.00000179 +00000-0 +73672-5 0  9993
2 15369 082.5293 031.4940 0019025 091.2484 269.0929 15.16750607960674
Epoch (UTC): 18 September 2020 11:29:17
Eccentricity: 0.0019025
inclination: 82.5293°
perigee height: 502 km
apogee height: 529 km
right ascension of ascending node: 31.4940°
argument of perigee: 91.2484°
revolutions per day: 15.16750607
mean anomaly at epoch: 269.0929°
orbit number at epoch: 96067

The dashed part of the orbit path shows where the satellite is in the earth's shadow,  

DLR